[[[{"header":{"parameterUnit":"kt","parameterCategory":2,"dx":1,"dy":1,"la1":30.253999710083008,"la2":30.299108505249023,"lo1":-89.0895004272461,"lo2":-89.04439544677734,"nx":28,"ny":28,"refTime":"2022-10-16T21:00:00:Z","depth":0,"parameterNumber":1,"parameterNumberName":"U-component_of_WINDS"},"data":[4.878,4.887,4.8899,4.9017,4.9063,4.9149,4.919,4.9245,4.9298,4.9406,4.9474,4.9514,4.9579,4.9669,4.9746,4.9762,4.9793,4.9805,4.9823,4.9741,4.9732,4.9723,4.9703,4.9811,4.9811,4.9902,4.9903,4.9904,4.8723,4.8769,4.8839,4.8926,4.8987,4.8994,4.9065,4.9116,4.9193,4.9258,4.9325,4.9424,4.9505,4.9568,4.9652,4.9698,4.9707,4.9719,4.9716,4.9727,4.9641,4.9619,4.9711,4.9711,4.9711,4.9711,4.9711,4.9711,4.8628,4.868,4.8749,4.8825,4.8877,4.8936,4.8991,4.9038,4.9107,4.9196,4.9218,4.9306,4.9378,4.9493,4.9539,4.9611,4.9603,4.9626,4.9632,4.9637,4.9639,4.9507,4.9627,4.9627,4.9626,4.9626,4.9626,0,4.8567,4.8587,4.8654,4.8732,4.8788,4.8851,4.8913,4.8949,4.9002,4.9057,4.9141,4.9194,4.93,4.9383,4.9468,4.9511,4.9525,4.9529,4.9545,4.9536,4.9518,4.953,4.939,4.9525,4.9524,4.9523,4.9523,4.9523,4.8473,4.853,4.8614,4.8658,4.8699,4.8769,4.8817,4.8859,4.8909,4.8993,4.9038,4.9121,4.9189,4.9319,4.9373,4.9453,4.946,4.9509,4.9472,4.9462,4.9463,4.9459,4.9466,4.9515,4.9516,4.9517,4.9517,0,4.8419,4.8463,4.856,4.8637,4.8659,4.8717,4.8785,4.8839,4.8877,4.8958,4.898,4.904,4.9122,4.9168,4.9271,4.9293,4.9396,4.94,4.9372,4.9376,4.9425,4.942,4.9573,4.9597,4.9484,4.9485,4.9486,0,4.8357,4.8429,4.8491,4.8545,4.8628,4.8666,4.8748,4.8789,4.8848,4.8912,4.8932,4.8993,4.9042,4.911,4.9142,4.9234,4.9253,4.9276,4.9283,4.9274,4.9271,4.9301,4.9296,4.9297,4.9296,4.9295,4.9295,0,4.8266,4.8383,4.847,4.8504,4.8593,4.8633,4.8673,4.8738,4.8785,4.8853,4.8884,4.8961,4.9003,4.9064,4.9104,4.9078,4.9217,4.9189,4.924,4.9239,4.9267,4.9265,4.939,4.9294,4.9294,4.9293,4.9293,0,4.8222,4.8286,4.8405,4.848,4.8509,4.8566,4.8643,4.8702,4.877,4.8793,4.8847,4.8866,4.8947,4.8917,4.9032,4.8986,4.9028,4.9056,4.9061,4.907,4.9035,4.91,4.9213,4.9227,4.9081,4.908,4.9078,0,4.8108,4.8237,4.8269,4.8382,4.8448,4.8465,4.853,4.8588,4.8624,4.8687,4.8728,4.88,4.8786,4.8815,4.8866,4.8911,4.897,4.8904,4.8999,4.9002,4.8981,4.9086,4.9091,4.9183,4.9056,4.9058,4.906,0,4.8023,4.8127,4.8144,4.8184,4.8264,4.8319,4.8393,4.8471,4.8511,4.8573,4.8638,4.8739,4.8734,4.878,4.8803,4.8853,4.8931,4.884,4.8843,4.8856,4.9048,4.9053,4.9068,4.8936,4.8939,4.8941,4.9042,0,4.795,4.8018,4.8066,4.8151,4.8199,4.827,4.8315,4.8361,4.8377,4.8412,4.8507,4.8565,4.8645,4.8674,4.8689,4.8789,4.8779,4.8772,4.8745,4.8813,4.8847,4.8861,4.869,4.8689,4.8689,4.8688,0,0,4.783,4.7928,4.7958,4.8029,4.8072,4.8087,4.8159,4.8203,4.8291,4.8322,4.8307,4.8457,4.8504,4.8615,4.864,4.8672,4.8695,4.8668,4.878,4.879,4.8799,4.8835,4.8849,4.8687,4.8687,4.8687,4.8687,0,4.7811,4.7854,4.7923,4.797,4.8039,4.8071,4.8088,4.8159,4.8184,4.8275,4.8287,4.8349,4.8466,4.8516,4.8557,4.8656,4.8662,4.8677,4.8716,4.8773,4.8784,4.8794,4.8831,4.8844,4.8686,4.8686,4.8686,0,4.7736,4.7787,4.7824,4.7919,4.7964,4.8031,4.8013,4.8083,4.8133,4.8146,4.8235,4.8274,4.8343,4.844,4.8486,4.8473,4.8629,4.8587,4.8591,4.8597,4.8655,4.8668,4.8679,4.8531,4.853,4.8529,0,0,4.7714,4.7776,4.7842,4.7918,4.7946,4.7994,4.8032,4.8051,4.8111,4.8134,4.8182,4.8242,4.8311,4.8356,4.8422,4.8523,4.8541,4.8566,4.8573,4.8579,4.8588,4.8647,4.866,4.8527,4.8526,4.8526,0,0,4.7704,4.7782,4.7786,4.7878,4.7934,4.8005,4.805,4.8058,4.8121,4.8117,4.8153,4.8171,4.8262,4.8299,4.8257,4.8414,4.8386,4.8397,4.8386,4.8396,4.8403,4.8392,4.8247,0,0,0,0,0,4.7705,4.7772,4.7775,4.7797,4.7916,4.8003,4.8019,4.8049,4.8029,4.8065,4.8107,4.8109,4.8284,4.8248,4.827,4.8316,4.8491,4.8497,4.8503,4.8513,4.8523,4.8531,0,0,0,0,0,0,4.7714,4.774,4.7774,4.7846,4.7873,4.8001,4.7974,4.7984,4.8026,4.8025,4.8101,4.8111,4.8139,4.8239,4.8258,4.8301,4.824,4.8493,4.8499,4.8504,4.8516,4.8524,4.8531,0,0,0,0,0,4.7721,4.7742,4.7925,4.7845,4.7869,4.7925,4.7972,4.798,4.8013,4.8076,4.8086,4.8031,4.814,4.8158,4.8251,4.8292,4.8227,4.8234,4.8497,4.8501,4.8505,4.852,0,0,0,0,0,0,4.7726,4.7751,4.793,4.7938,4.7821,4.7918,4.7934,4.7976,4.8062,4.8073,4.8008,4.8006,4.8141,4.8155,4.8169,4.8287,4.8216,4.8224,4.8228,4.85,4.8503,4.8506,0,0,0,0,0,0,4.774,4.7758,4.7934,4.7902,4.7907,4.7912,4.7927,4.8009,4.8063,4.7989,4.799,4.8006,4.812,4.8153,4.8164,4.8292,4.8208,4.8215,4.822,4.8223,4.8503,4.8505,0,0,0,0,0,0,4.7748,4.7764,4.79,4.7904,4.7908,4.8005,4.7986,4.8107,4.8033,4.7985,4.8027,4.8024,4.8118,4.813,4.8161,4.8283,4.8289,4.8208,4.8213,4.8216,4.8218,0,0,0,0,0,0,0,4.7755,4.7643,4.788,4.7905,4.7909,4.8016,4.8019,4.8021,4.8032,4.803,4.8028,4.8025,4.8168,4.8176,4.8183,4.8277,0,0,4.8207,4.8211,0,0,0,0,0,0,0,0,4.7637,4.7641,4.788,4.7882,4.7884,4.8017,4.8019,4.802,4.8032,4.803,4.8028,4.8026,4.817,4.8176,4.8182,0,0,0,0,0,0,0,0,0,0,0,0,0,0,0,4.788,4.7882,0,4.8017,4.8019,4.802,4.8031,4.803,4.8028,4.8027,4.8172,4.8177,4.8182,0,0,0,0,0,0,0,0,0,0,0,0,0,0,0,0,0,0,0,0,0,0,0,0,0,0,0,0,0,0,0,0,0,0,0,0,0,0,0,0,0,0,0,0,0,0,0,0,0,0,0,0,0,0,0,0,0,0,0,0,0,0,0,0,0,0,0,0,0]}],[{"header":{"parameterUnit":"kt","parameterCategory":2,"dx":1,"dy":1,"la1":30.253999710083008,"la2":30.299108505249023,"lo1":-89.0895004272461,"lo2":-89.04439544677734,"nx":28,"ny":28,"refTime":"2022-10-16T21:00:00:Z","depth":0,"parameterNumber":2,"parameterNumberName":"V-component_of_WINDS"},"data":[-2.1445,-2.1307,-2.1272,-2.1098,-2.1036,-2.0912,-2.0856,-2.078,-2.0709,-2.0556,-2.0462,-2.0409,-2.0324,-2.0202,-2.0097,-2.0076,-2.0036,-2.0017,-1.9996,-2.0116,-2.013,-2.0144,-2.0176,-2.0008,-2.0008,-1.9879,-1.9878,-1.9877,-2.1547,-2.1485,-2.1381,-2.1256,-2.1168,-2.1166,-2.1066,-2.0992,-2.0879,-2.079,-2.0693,-2.0554,-2.0439,-2.0356,-2.024,-2.0175,-2.0168,-2.0147,-2.0153,-2.014,-2.0266,-2.03,-2.0156,-2.0156,-2.0156,-2.0156,-2.0156,-2.0156,-2.1724,-2.1642,-2.1545,-2.1431,-2.1357,-2.1273,-2.1188,-2.1125,-2.1021,-2.0894,-2.0866,-2.0738,-2.064,-2.0476,-2.0411,-2.0311,-2.0326,-2.0291,-2.0283,-2.0276,-2.0276,-2.0478,-2.0287,-2.0288,-2.0288,-2.0288,-2.0288,0,-2.1844,-2.1819,-2.1714,-2.16,-2.1514,-2.1421,-2.1328,-2.1274,-2.1204,-2.112,-2.0997,-2.0919,-2.0765,-2.0644,-2.0523,-2.0461,-2.0449,-2.0441,-2.0417,-2.0432,-2.0464,-2.0452,-2.0664,-2.0447,-2.0448,-2.0449,-2.0449,-2.045,-2.2024,-2.1929,-2.1806,-2.1738,-2.1678,-2.1567,-2.1493,-2.1438,-2.1362,-2.1239,-2.1167,-2.1044,-2.0943,-2.0748,-2.0673,-2.0556,-2.0549,-2.0472,-2.0531,-2.0551,-2.0554,-2.0562,-2.0555,-2.0462,-2.0461,-2.0459,-2.0458,0,-2.2131,-2.2068,-2.1907,-2.1792,-2.1761,-2.1664,-2.1566,-2.1479,-2.1424,-2.1297,-2.1264,-2.1178,-2.1056,-2.0991,-2.0835,-2.0806,-2.0651,-2.0644,-2.0688,-2.0684,-2.0613,-2.0622,-2.0378,-2.0346,-2.0514,-2.0513,-2.0512,0,-2.2262,-2.2137,-2.2051,-2.1961,-2.1822,-2.1768,-2.1632,-2.1572,-2.1483,-2.1382,-2.1356,-2.1262,-2.1192,-2.1088,-2.1043,-2.0904,-2.0872,-2.0843,-2.0833,-2.0847,-2.0852,-2.0807,-2.0817,-2.0807,-2.0808,-2.0809,-2.081,0,-2.2439,-2.2242,-2.2095,-2.204,-2.1902,-2.1834,-2.1773,-2.1672,-2.1598,-2.1491,-2.1444,-2.1322,-2.1256,-2.1163,-2.1107,-2.1151,-2.0932,-2.098,-2.0902,-2.0904,-2.0859,-2.0863,-2.0662,-2.0812,-2.0812,-2.0813,-2.0813,0,-2.2535,-2.2429,-2.2222,-2.2108,-2.2059,-2.1959,-2.1838,-2.1737,-2.1631,-2.1596,-2.1511,-2.1486,-2.1353,-2.1407,-2.1226,-2.13,-2.1237,-2.1194,-2.1187,-2.1174,-2.1237,-2.1138,-2.0949,-2.0929,-2.1161,-2.1164,-2.1166,0,-2.2759,-2.2531,-2.2482,-2.2285,-2.2171,-2.2153,-2.2041,-2.1947,-2.1891,-2.1786,-2.1723,-2.1602,-2.1627,-2.158,-2.1498,-2.1429,-2.1332,-2.1439,-2.1292,-2.1288,-2.1327,-2.1152,-2.1142,-2.0997,-2.1202,-2.1198,-2.1195,0,-2.2924,-2.2755,-2.2722,-2.2659,-2.2523,-2.2425,-2.2295,-2.2163,-2.2097,-2.1989,-2.1882,-2.1705,-2.172,-2.164,-2.1604,-2.1522,-2.1396,-2.1547,-2.1543,-2.1527,-2.1212,-2.1205,-2.1181,-2.139,-2.1386,-2.1382,-2.1224,0,-2.3095,-2.2969,-2.2877,-2.2731,-2.2643,-2.2513,-2.2442,-2.236,-2.2337,-2.228,-2.2115,-2.2014,-2.1876,-2.1827,-2.18,-2.1633,-2.1651,-2.1664,-2.1713,-2.1596,-2.1543,-2.152,-2.18,-2.1801,-2.1801,-2.1802,0,0,-2.3327,-2.3145,-2.3092,-2.2963,-2.2887,-2.2867,-2.2734,-2.2656,-2.2498,-2.2447,-2.2473,-2.221,-2.2125,-2.1933,-2.1891,-2.1832,-2.1797,-2.1838,-2.1651,-2.1635,-2.1619,-2.1563,-2.1541,-2.1803,-2.1804,-2.1804,-2.1804,0,-2.3376,-2.3291,-2.3159,-2.3077,-2.2954,-2.2898,-2.2867,-2.2739,-2.2695,-2.2531,-2.2515,-2.2406,-2.2192,-2.2109,-2.2038,-2.186,-2.1853,-2.1822,-2.1754,-2.1662,-2.1644,-2.1628,-2.157,-2.155,-2.1806,-2.1806,-2.1806,0,-2.3529,-2.3436,-2.3363,-2.3185,-2.3102,-2.2981,-2.3016,-2.2884,-2.2795,-2.2774,-2.261,-2.2543,-2.2421,-2.2245,-2.2163,-2.2184,-2.191,-2.1979,-2.1972,-2.1962,-2.1869,-2.1848,-2.1829,-2.2077,-2.2079,-2.208,0,0,-2.3581,-2.3461,-2.3341,-2.3189,-2.3139,-2.3053,-2.2979,-2.2947,-2.2838,-2.2795,-2.2708,-2.2602,-2.2478,-2.2398,-2.2276,-2.2092,-2.2064,-2.2016,-2.2003,-2.1993,-2.1978,-2.1882,-2.1861,-2.2085,-2.2085,-2.2085,0,0,-2.3604,-2.346,-2.3455,-2.327,-2.3169,-2.3038,-2.2949,-2.2939,-2.2822,-2.2829,-2.2765,-2.2733,-2.2567,-2.25,-2.2573,-2.2293,-2.2342,-2.2322,-2.2343,-2.2325,-2.2313,-2.2333,-2.2592,0,0,0,0,0,-2.3616,-2.3479,-2.3476,-2.3434,-2.3204,-2.3041,-2.3011,-2.2956,-2.2995,-2.2926,-2.2852,-2.2848,-2.2528,-2.2592,-2.255,-2.2469,-2.2147,-2.2136,-2.2125,-2.2108,-2.2091,-2.2076,0,0,0,0,0,0,-2.3599,-2.3548,-2.3479,-2.3344,-2.3292,-2.3045,-2.3098,-2.308,-2.3001,-2.3003,-2.2863,-2.2843,-2.2792,-2.2609,-2.2572,-2.2496,-2.2605,-2.2142,-2.2133,-2.2125,-2.2102,-2.2088,-2.2076,0,0,0,0,0,-2.3585,-2.3544,-2.319,-2.3346,-2.33,-2.3196,-2.3103,-2.3088,-2.3026,-2.2909,-2.289,-2.2992,-2.2792,-2.2757,-2.2587,-2.2514,-2.263,-2.2616,-2.2136,-2.2129,-2.2122,-2.2095,0,0,0,0,0,0,-2.3575,-2.3528,-2.318,-2.3164,-2.3393,-2.3209,-2.3178,-2.3095,-2.2936,-2.2916,-2.3036,-2.304,-2.2789,-2.2763,-2.2736,-2.2524,-2.265,-2.2636,-2.2628,-2.2131,-2.2125,-2.212,0,0,0,0,0,0,-2.355,-2.3515,-2.3172,-2.3234,-2.3225,-2.3221,-2.3193,-2.3038,-2.2934,-2.3071,-2.307,-2.304,-2.2829,-2.2766,-2.2746,-2.2506,-2.2666,-2.2653,-2.2643,-2.2638,-2.2126,-2.2122,0,0,0,0,0,0,-2.3535,-2.3504,-2.3238,-2.3231,-2.3223,-2.3041,-2.3083,-2.285,-2.2991,-2.3079,-2.3001,-2.3006,-2.2832,-2.281,-2.2752,-2.2522,-2.251,-2.2665,-2.2656,-2.265,-2.2646,0,0,0,0,0,0,0,-2.3522,-2.3737,-2.3274,-2.3228,-2.3222,-2.3018,-2.3013,-2.3009,-2.2992,-2.2996,-2.3,-2.3004,-2.274,-2.2726,-2.2711,-2.2534,0,0,-2.2666,-2.266,0,0,0,0,0,0,0,0,-2.3748,-2.374,-2.3274,-2.327,-2.3267,-2.3017,-2.3014,-2.301,-2.2992,-2.2996,-2.2999,-2.3003,-2.2736,-2.2725,-2.2713,0,0,0,0,0,0,0,0,0,0,0,0,0,0,0,-2.3273,-2.3271,0,-2.3017,-2.3014,-2.3011,-2.2993,-2.2996,-2.2999,-2.3001,-2.2733,-2.2724,-2.2714,0,0,0,0,0,0,0,0,0,0,0,0,0,0,0,0,0,0,0,0,0,0,0,0,0,0,0,0,0,0,0,0,0,0,0,0,0,0,0,0,0,0,0,0,0,0,0,0,0,0,0,0,0,0,0,0,0,0,0,0,0,0,0,0,0,0,0,0,0]}]]]